www.pogodaiklimat.ru

Погода и климат >> Архив погоды >> Мексика >> Zamora


ПОГОДА в Zamora

  • Прогноз погоды в Zamora
  • Монитор погоды в Zamora
  • Климат города

АРХИВ ПОГОДЫ в Zamora

Время (UTC), дата Ветер
(напр.,м/с)
 
Видим.   Явления Облачность Т
(С)
Тd
(С)
f
(%)
Тe
(С)
Тes
(С)
Комфортность P
(гПа)
Po
(гПа)
Тmin
(С)
Tmax
(С)
R
(мм)
R24
(мм)
S
(см)
06 16.01 ЮВ 2 10 км ясно +8.3 +4.3 76 +7 +7 1015.3 848.4 +1.7 +27.4
12 16.01 ЮВ 1 10 км ясно +2.4 -1.2 77 +1 +1 1021.7 848.9 +1.6 +27.4
18 16.01 В 1 18 км мгла {туман} ясно +22.0 -1.2 21 +21 +35 комфорт 1023.0 849.9 +1.7 +22.2
21 16.01 З 2 18 км ясно +27.0 +1.6 19 +25 +34 комфорт 1016.1 846.7
00 17.01 З 2 18 км ясно +24.0 +7.1 34 +24 +24 комфорт 1011.9 846.1 +1.6 +28.0
03 17.01 В 1 10 км ясно +15.4 +5.4 51 +16 +16 1012.9 848.2
06 17.01 В 2 10 км ясно +11.8 +4.4 60 +11 +11 1015.6 849.7 +1.6 +28.0
09 17.01 СВ 1 8000 м ясно +8.4 +3.8 73 +8 +8 1017.4 849.1
12 17.01 Ю 1 8000 м ясно +6.8 +4.9 88 +6 +6 1021.7 850.3 +5.2 +28.0
15 17.01 Ю 1 18 км мгла {туман} ясно +10.6 +1.4 53 +11 +14 1024.8 850.8
18 17.01 СВ 2 18 км мгла {туман} ясно +19.2 +8.6 50 +21 +33 комфорт 1023.0 850.9 +4.5 +21.6
21 17.01 В 2 18 км мгла {туман} ясно +24.2 +6.0 31 +24 +33 комфорт 1017.3 848.0
00 18.01 ЮЗ 1 18 км ясно +22.0 +6.9 38 +23 +23 комфорт 1013.5 846.9 +4.5 +27.8
03 18.01 В 1 10 км ясно +15.2 +8.5 64 +16 +16 1013.8 848.3
06 18.01 В 1 10 км ясно +11.6 +7.4 75 +12 +12 1015.4 849.1 +4.5 +27.8
09 18.01 В 1 10 км ясно +10.0 +5.2 72 +10 +10 1017.6 849.3
12 18.01 В 1 10 км ясно +8.2 +4.4 77 +8 +8 1019.8 849.1 +7.4 +27.8
15 18.01 В 2 20 км мгла {туман} 1/1 1020 м
[Sc diur, vesp]
+9.0 +4.1 71 +7 +10 1022.8 850.4
18 18.01 СВ 2 20 км мгла {туман} 1/1 660 м
[Cu med, cong]
+19.0 +7.1 46 +20 +31 1021.9 850.1 +7.0 +22.0
21 18.01 З 4 20 км мгла {туман} 1/1 660 м
[Cu med, cong]
+24.0 +5.2 30 +24 +29 комфорт 1015.9 846.8
00 19.01 СЗ 3 18 км мгла {туман} 3/3 600 м
[Cu med, cong]
+24.0 +5.7 31 +24 +24 комфорт 1012.0 845.6 +7.0 +27.0
03 19.01 Ю 2 10 км ясно +17.8 +7.7 52 +18 +18 1012.0 847.1
06 19.01 ЮЗ 1 10 км ясно +12.0 +7.8 75 +12 +12 1014.2 848.8 +7.0 +27.0
12 19.01 ЮВ 1 18 км ясно +6.8 +5.7 93 +6 +6 1018.3 848.1 +6.0 +27.0
15 19.01 В 2 18 км мгла {туман} ясно +8.0 +6.2 88 +6 +9 1022.0 849.5
18 19.01 З 1 18 км мгла {туман} 3/3 660 м
[Cu med, cong]
+23.0 +5.1 31 +23 +33 комфорт 1020.6 849.1 +6.0 +23.2
21 19.01 З 1 18 км мгла {туман} 3/3 600 м
[Cu med, cong]
+24.2 +5.0 29 +24 +31 комфорт 1014.1 845.6
00 20.01 ЮЗ 1 20 км 6/6 1000 м
[Sc diur, vesp]
+21.0 +7.0 40 +26 +26 душно 1010.5 844.7 +6.0 +27.4
03 20.01 ЮЗ 3 10 км 5/5 1170 м
[Sc diur, vesp]
+18.2 +8.6 53 +19 +19 1010.8 846.4
06 20.01 СВ 1 10 км ясно +14.0 +7.1 63 +14 +14 1012.1 846.9 +27.4
09 20.01 В 1 10 км ясно +9.0 +5.3 78 +8 +8 1014.5 847.3
12 20.01 СВ 1 10 км ясно +7.4 +4.3 81 +7 +7 1017.3 847.6 +6.6 +27.4
15 20.01 С 1 18 км мгла {туман} ясно +13.8 +1.9 44 +14 +18 1019.9 848.7
18 20.01 З 1 18 км мгла {туман} ясно +25.8 +5.1 26 +25 +40 комфорт 1018.5 848.4 +6.5 +26.5
21 20.01 СВ 2 18 км мгла {туман} 8/0
[Ci sp]
+26.2 0.0 18 +24 +32 комфорт 1012.3 845.3
00 21.01 З 3 18 км мгла {туман} 6/0
[Ci sp]
+24.6 +4.2 27 +24 +24 комфорт 1009.0 844.8 +6.5 +28.5
03 21.01 З 2 10 км ясно +17.0 +4.4 43 +17 +17 1009.9 846.5
06 21.01 В 2 10 км ясно +13.8 +7.2 64 +13 +13 1011.4 846.7 +6.5 +28.5
09 21.01 В 1 10 км ясно +12.0 +7.9 76 +12 +12 1013.1 846.4
12 21.01 С 2 10 км ясно +9.4 +6.5 82 +8 +8 1015.2 846.1 +6.0 +28.5
18 21.01 ЮВ 1 18 км мгла {туман} ясно +20.2 +7.5 44 +22 +37 комфорт 1018.2 847.8 +4.2 +24.6
21 21.01 З 1 18 км мгла {туман} 3/0
[Ci sp]
+26.2 +3.1 22 +25 +35 комфорт 1011.7 844.0
00 22.01 В 1 20 км 3/0
[Ci sp]
+25.2 +4.6 26 +25 +25 комфорт 1009.3 844.1 +4.2 +29.2
03 22.01 В 2 10 км ясно +15.4 +3.6 45 +15 +15 1009.3 845.4
06 22.01 СВ 1 10 км ясно +12.4 +5.1 61 +13 +13 1011.1 846.5 +4.2 +29.2
09 22.01 СВ 1 10 км ясно +9.2 +6.7 84 +9 +9 1012.6 845.9
12 22.01 СВ 1 10 км ясно +7.4 +1.3 65 +7 +7 1016.8 846.9 +6.2 +29.2
15 22.01 СЗ 1 18 км пыль 4/0
[Ci]
+11.4 +3.9 60 +11 +15 1018.7 847.0
18 22.01 З 1 18 км мгла 8/0
[Cs]
+19.2 +7.4 46 +21 +33 комфорт 1017.1 846.4 +6.2 +26.6
21 22.01 З 3 18 км мгла 9/0
[Cs]
+28.4 +5.9 24 +27 +33 жарко 1011.1 843.5
00 23.01 З 4 18 км мгла 9/0
[Cs]
+25.6 +5.3 27 +25 +25 комфорт 1008.0 843.2 +6.2 +29.4

 

Местоположение метеостанции Zamora (Мексика): широта 19.98 долгота -102.30 высота над уровнем моря 1562 м.

В архиве по умолчанию представлена погода в Zamora за последнюю неделю. Архивные данные за месяц целиком и за предыдущие месяцы, начиная с января 2011 года, Вы можете получить, выбрав интересующий диапазон дат из раскрывающегося списка и нажав кнопку "Ввод!".

Внимание! Время в таблицах - всемирное. Для получения местного времени необходимо прибавить поправку, которая в Zamora равна -6 ч.

Смотрите также архив погоды в соседних городах и на ближайших метеорологических станциях:

Погода в Ciudad Guzman (Мексика) (119 км)
Погода в Morelia (Мексика) (129 км)
Погода в Guadalajara (Мексика) (129 км)
Погода в Colima (Мексика) (148 км)
Погода в Lagos De Moreno (Мексика) (157 км)
Погода в Guanajuato (Мексика) (161 км)
Погода в Queretaro (Мексика) (209 км)
Погода в Aguascalientes (Мексика) (210 км)
Погода в Manzanillo (Мексика) (234 км)
Погода в Colotlan (Мексика) (256 км)

Пояснения к столбцам:

Ветер - указаны скорость ветра в м/с - средняя за 10 мин, порывы в срок и между сроками (в фигурных скобках) и направление, откуда дует ветер: С - северный, СВ - северо-восточный, В - восточный, ЮВ - юго-восточный, Ю - южный, ЮЗ - юго-западный, З - западный, СЗ - северо-западный.
Видимость - горизонтальная дальность видимости в метрах или километрах. При видимости от 1 до 10 км при отсутствии осадков обычно наблюдается дымка, при ухудшении видимости до 1 км и менее - туман. В сухую погоду видимость может ухудшаться дымом, пылью или мглою.
Явления - указаны атмосферные явления, наблюдавшиеся в срок или в последний час перед сроком; фигурными скобками обозначены явления, наблюдавшиеся между сроками (за 1-3 часа до срока); квадратными скобками обозначены град или гололедные отложения с указанием их диаметра в мм.
Облачность - указаны через наклонную черту общая и нижняя облачность в баллах и высота нижней границы облаков в метрах; квадратными скобками обозначены формы облаков: Ci - перистые, Cs - перисто-слоистые, Cc - перисто-кучевые, Ac - высококучевые, As - высокослоистые, Sc - слоисто-кучевые, Ns - слоисто-дождевые, Cu - кучевые, Cb - кучево-дождевые. Подробнее классификацию облаков см. в Атласе облаков (PDF).
T - Температура воздуха - температура, измеренная на высоте 2 м над землей.
Td - Температура точки росы - температура, при понижении до которой содержащийся в воздухе водяной пар достигнет насыщения.
f - Относительная влажность воздуха - влажноcть воздуха, измеренная на высоте 2 м над землей.
Te - Эффективная температура - температура, которую ощущает одетый по сезону человек в тени. Характеристика душности погоды. При расчете учитывается влияние влажности воздуха и скорости ветра на теплоощущения человека.
Tes - Эффективная температура на солнце - температура, которую ощущает человек, с поправкой на солнечный нагрев. Характеристика знойности погоды. Зависит от высоты солнца над горизонтом, облачности и скорости ветра. Ночью, в пасмурную погоду, а также при ветре 12 м/с и более поправка равна нулю.
P - Атмосферное давление - приведенное к уровню моря атмосферное давление.
Po - Атмосферное давление - измеренное на уровне метеостанции атмосферное давление.
Tmin - Минимальная температура - минимум температуры воздуха на высоте 2 м над землей.
Tmax - Максимальная температура - максимум температуры воздуха на высоте 2 м над землей.
R - Количество осадков - Количество выпавших осадков за период времени, мм. При наведении курсора мыши на число - период времени, за который выпало указанное количество осадков.
R24 - Количество осадков - Количество выпавших осадков за 24 часа, мм.
S - Снежный покров - Высота снежного покрова, см. При наведении курсора мыши на число - состояние снежного покрова и степень покрытия местности в баллах.